Weather in Agios Stefanos

Greece     39°45′17″N   19°38′44″E
temp.,
°C
wind,
m/s
gust,
m/s
humid.,
%
clouds,
%
prec.,
mm/h
press.,
hPa
HPBL,
m
4 march, thu
thu423:00+11w11660 0.0 102899
02:00+10sw12660 0.0 102899
05:00+10ssw11680 0.0 1026124
08:00+10s12700 0.0 1026142
11:00+15sw12560 0.0 1025558
14:00+15w22560 0.0 1023640
17:00+14wnw22600 0.0 1022553
20:00+11wnw12730 0.0 1022197
5 march, fri
fri523:00+10sw11750 0.0 1022182
02:00+9sse11770 0.0 1022164
05:00+9se22800 0.0 1021115
08:00+9se22780 0.0 1020132
11:00+14sse34610 0.0 1021945
14:00+15s445844 0.0 10191168
17:00+14sse346275 0.0 1019973
20:00+11sse247287 0.0 1019344
6 march, sat
sat623:00+11sse2372100 0.0 1021284
02:00+11ese3378100 0.2 1021199
05:00+11se2272100 0.2 1021202
08:00+11e1273100 0.5 1021161
11:00+11ese1281100 0.9 1022203
14:00+12ssw1179100 1.3 1022344
17:00+13nw117142 0.0 1022499
20:00+11nw238222 0.0 1023222
7 march, sun
sun723:00+11nw12830 0.0 1024177
02:00+11nw22820 0.0 1024180
05:00+10n12810 0.0 1023160
08:00+11e11790 0.0 102388
11:00+15se11610 0.0 1024562
14:00+16nnw21590 0.0 1022842
17:00+14nnw33655 0.0 1021575
20:00+12wnw01753 0.0 102187
8 march, mon
mon823:00+11s11760 0.0 102173
02:00+10sse22790 0.0 102095
05:00+10se238235 0.0 1018118
08:00+11se348368 0.0 1018236
11:00+14se3473100 0.0 1018836
14:00+15sse336697 0.1 1017956
17:00+15s226634 0.1 1015806
20:00+12s227829 0.1 1015148